Time,TemperatureF,DewpointF,PressureIn,WindDirection,WindDirectionDegrees,WindSpeedMPH,WindSpeedGustMPH,Humidity,HourlyPrecipIn,Conditions,Clouds,dailyrainin,SolarRadiationWatts/m^2,SoftwareType,DateUTC
2013-06-15 00:01:00,53.0,43.0,-100.00,NW,309,1.0,3.0,69,0.00,,,0.00,0.000000,,2013-06-15 07:01:00,
2013-06-15 00:11:00,53.0,43.0,-100.00,NW,309,1.0,3.0,69,0.00,,,0.00,0.000000,,2013-06-15 07:11:00,
2013-06-15 00:43:00,53.0,42.0,-100.00,NNW,335,1.0,2.0,66,0.00,,,0.00,0.000000,,2013-06-15 07:43:00,
2013-06-15 01:02:00,53.0,42.0,-100.00,NNW,335,1.0,2.0,66,0.00,,,0.00,0.000000,,2013-06-15 08:02:00,
2013-06-15 01:11:00,53.0,42.0,-100.00,NNW,335,1.0,2.0,66,0.00,,,0.00,0.000000,,2013-06-15 08:11:00,
2013-06-15 01:43:00,51.0,40.0,-100.00,NNW,329,2.0,4.0,65,0.00,,,0.00,0.000000,,2013-06-15 08:43:00,
2013-06-15 01:53:00,51.0,40.0,-100.00,NNW,329,2.0,4.0,65,0.00,,,0.00,0.000000,,2013-06-15 08:53:00,
2013-06-15 02:02:00,51.0,40.0,-100.00,NNW,329,2.0,4.0,65,0.00,,,0.00,0.000000,,2013-06-15 09:02:00,
2013-06-15 02:12:00,51.0,40.0,-100.00,NNW,329,2.0,4.0,65,0.00,,,0.00,0.000000,,2013-06-15 09:12:00,
2013-06-15 02:43:00,52.0,34.0,-100.00,NNW,340,2.0,4.0,50,0.00,,,0.00,0.000000,,2013-06-15 09:43:00,
2013-06-15 02:52:00,52.0,34.0,-100.00,NNW,340,2.0,4.0,50,0.00,,,0.00,0.000000,,2013-06-15 09:52:00,
2013-06-15 03:02:00,52.0,34.0,-100.00,NNW,340,2.0,4.0,50,0.00,,,0.00,0.000000,,2013-06-15 10:02:00,
2013-06-15 03:11:00,52.0,34.0,-100.00,NNW,340,2.0,4.0,50,0.00,,,0.00,0.000000,,2013-06-15 10:11:00,
2013-06-15 03:44:00,52.0,33.0,-100.00,NW,326,2.0,4.0,48,0.00,,,0.00,0.000000,,2013-06-15 10:44:00,
2013-06-15 03:53:00,52.0,33.0,-100.00,NW,326,2.0,4.0,48,0.00,,,0.00,0.000000,,2013-06-15 10:53:00,
2013-06-15 04:01:00,52.0,33.0,-100.00,NW,326,2.0,4.0,48,0.00,,,0.00,0.000000,,2013-06-15 11:01:00,
2013-06-15 04:11:00,52.0,33.0,-100.00,NW,326,2.0,4.0,48,0.00,,,0.00,0.000000,,2013-06-15 11:11:00,
2013-06-15 04:43:00,50.0,33.0,-100.00,NW,320,1.0,4.0,52,0.00,,,0.00,0.000000,,2013-06-15 11:43:00,
2013-06-15 04:53:00,50.0,33.0,-100.00,NW,320,1.0,4.0,52,0.00,,,0.00,0.000000,,2013-06-15 11:53:00,
2013-06-15 05:01:00,50.0,33.0,-100.00,NW,320,1.0,4.0,52,0.00,,,0.00,0.000000,,2013-06-15 12:01:00,
2013-06-15 05:11:00,50.0,33.0,-100.00,NW,320,1.0,4.0,52,0.00,,,0.00,0.000000,,2013-06-15 12:11:00,
2013-06-15 05:43:00,51.0,34.0,-100.00,NNW,335,2.0,4.0,52,0.00,,,0.00,1.000000,,2013-06-15 12:43:00,
2013-06-15 05:52:00,51.0,34.0,-100.00,NNW,335,2.0,4.0,52,0.00,,,0.00,1.000000,,2013-06-15 12:52:00,
2013-06-15 06:02:00,51.0,34.0,-100.00,NNW,335,2.0,4.0,52,0.00,,,0.00,1.000000,,2013-06-15 13:02:00,
2013-06-15 06:11:00,51.0,34.0,-100.00,NNW,335,2.0,4.0,52,0.00,,,0.00,1.000000,,2013-06-15 13:11:00,
2013-06-15 06:44:00,54.0,38.0,-100.00,North,349,2.0,4.0,55,0.00,,,0.00,45.000000,,2013-06-15 13:44:00,
2013-06-15 07:12:00,54.0,38.0,-100.00,North,349,2.0,4.0,55,0.00,,,0.00,45.000000,,2013-06-15 14:12:00,
2013-06-15 07:43:00,58.0,39.0,-100.00,NNE,27,3.0,7.0,50,0.00,,,0.00,40.000000,,2013-06-15 14:43:00,
2013-06-15 07:54:00,58.0,39.0,-100.00,NNE,27,3.0,7.0,50,0.00,,,0.00,40.000000,,2013-06-15 14:54:00,
2013-06-15 08:11:00,58.0,39.0,-100.00,NNE,27,3.0,7.0,50,0.00,,,0.00,40.000000,,2013-06-15 15:11:00,
2013-06-15 08:43:00,61.0,41.0,-100.00,ENE,61,4.0,9.0,48,0.00,,,0.00,259.000000,,2013-06-15 15:43:00,
2013-06-15 08:53:00,61.0,41.0,-100.00,ENE,61,4.0,9.0,48,0.00,,,0.00,259.000000,,2013-06-15 15:53:00,
2013-06-15 09:01:00,61.0,41.0,-100.00,ENE,61,4.0,9.0,48,0.00,,,0.00,259.000000,,2013-06-15 16:01:00,
2013-06-15 09:43:00,64.0,43.0,-100.00,ENE,61,2.0,9.0,47,0.00,,,0.00,558.000000,,2013-06-15 16:43:00,
2013-06-15 09:53:00,64.0,43.0,-100.00,ENE,61,2.0,9.0,47,0.00,,,0.00,558.000000,,2013-06-15 16:53:00,
2013-06-15 10:01:00,64.0,43.0,-100.00,ENE,61,2.0,9.0,47,0.00,,,0.00,558.000000,,2013-06-15 17:01:00,
2013-06-15 10:11:00,64.0,43.0,-100.00,ENE,61,2.0,9.0,47,0.00,,,0.00,558.000000,,2013-06-15 17:11:00,
2013-06-15 10:43:00,66.0,44.0,-100.00,East,84,4.0,9.0,45,0.00,,,0.00,717.000000,,2013-06-15 17:43:00,
2013-06-15 10:52:00,66.0,44.0,-100.00,East,84,4.0,9.0,45,0.00,,,0.00,717.000000,,2013-06-15 17:52:00,
2013-06-15 11:01:00,66.0,44.0,-100.00,East,84,4.0,9.0,45,0.00,,,0.00,717.000000,,2013-06-15 18:01:00,
2013-06-15 11:11:00,66.0,44.0,-100.00,East,84,4.0,9.0,45,0.00,,,0.00,717.000000,,2013-06-15 18:11:00,
2013-06-15 11:43:00,68.0,40.0,-100.00,SE,129,3.0,10.0,36,0.00,,,0.00,844.000000,,2013-06-15 18:43:00,
2013-06-15 11:53:00,68.0,40.0,-100.00,SE,129,3.0,10.0,36,0.00,,,0.00,844.000000,,2013-06-15 18:53:00,
2013-06-15 12:01:00,68.0,40.0,-100.00,SE,129,3.0,10.0,36,0.00,,,0.00,844.000000,,2013-06-15 19:01:00,
2013-06-15 12:11:00,68.0,40.0,-100.00,SE,129,3.0,10.0,36,0.00,,,0.00,844.000000,,2013-06-15 19:11:00,
2013-06-15 12:43:00,71.0,41.0,-100.00,ESE,117,3.0,9.0,34,0.00,,,0.00,924.000000,,2013-06-15 19:43:00,
2013-06-15 12:53:00,71.0,41.0,-100.00,ESE,117,3.0,9.0,34,0.00,,,0.00,924.000000,,2013-06-15 19:53:00,
2013-06-15 13:02:00,71.0,41.0,-100.00,ESE,117,3.0,9.0,34,0.00,,,0.00,924.000000,,2013-06-15 20:02:00,
2013-06-15 13:11:00,71.0,41.0,-100.00,ESE,117,3.0,9.0,34,0.00,,,0.00,924.000000,,2013-06-15 20:11:00,
2013-06-15 13:43:00,73.0,41.0,-100.00,ENE,69,3.0,9.0,31,0.00,,,0.00,952.000000,,2013-06-15 20:43:00,
2013-06-15 13:53:00,73.0,41.0,-100.00,ENE,69,3.0,9.0,31,0.00,,,0.00,952.000000,,2013-06-15 20:53:00,
2013-06-15 14:01:00,73.0,41.0,-100.00,ENE,69,3.0,9.0,31,0.00,,,0.00,952.000000,,2013-06-15 21:01:00,
2013-06-15 14:11:00,73.0,41.0,-100.00,ENE,69,3.0,9.0,31,0.00,,,0.00,952.000000,,2013-06-15 21:11:00,
2013-06-15 14:42:00,75.0,39.0,-100.00,ESE,110,2.0,10.0,27,0.00,,,0.00,943.000000,,2013-06-15 21:42:00,
2013-06-15 14:53:00,75.0,39.0,-100.00,ESE,110,2.0,10.0,27,0.00,,,0.00,943.000000,,2013-06-15 21:53:00,
2013-06-15 15:01:00,75.0,39.0,-100.00,ESE,110,2.0,10.0,27,0.00,,,0.00,943.000000,,2013-06-15 22:01:00,
2013-06-15 15:11:00,75.0,39.0,-100.00,ESE,110,2.0,10.0,27,0.00,,,0.00,943.000000,,2013-06-15 22:11:00,
2013-06-15 15:43:00,76.0,41.0,-100.00,ENE,60,4.0,9.0,29,0.00,,,0.00,793.000000,,2013-06-15 22:43:00,
2013-06-15 15:53:00,76.0,41.0,-100.00,ENE,60,4.0,9.0,29,0.00,,,0.00,793.000000,,2013-06-15 22:53:00,
2013-06-15 16:01:00,76.0,41.0,-100.00,ENE,60,4.0,9.0,29,0.00,,,0.00,793.000000,,2013-06-15 23:01:00,
2013-06-15 16:11:00,76.0,41.0,-100.00,ENE,60,4.0,9.0,29,0.00,,,0.00,793.000000,,2013-06-15 23:11:00,
2013-06-15 16:43:00,77.0,39.0,-100.00,ENE,61,4.0,8.0,26,0.00,,,0.00,700.000000,,2013-06-15 23:43:00,
2013-06-15 16:53:00,77.0,39.0,-100.00,ENE,61,4.0,8.0,26,0.00,,,0.00,700.000000,,2013-06-15 23:53:00,
2013-06-15 17:01:00,77.0,39.0,-100.00,ENE,61,4.0,8.0,26,0.00,,,0.00,700.000000,,2013-06-16 00:01:00,
2013-06-15 17:11:00,77.0,39.0,-100.00,ENE,61,4.0,8.0,26,0.00,,,0.00,700.000000,,2013-06-16 00:11:00,
2013-06-15 17:43:00,73.0,40.0,-100.00,ENE,68,5.0,12.0,30,0.00,,,-99.99,384.000000,,2013-06-16 00:43:00,
2013-06-15 17:52:00,73.0,40.0,-100.00,ENE,68,5.0,12.0,30,0.00,,,-99.99,384.000000,,2013-06-16 00:52:00,
2013-06-15 18:01:00,73.0,40.0,-100.00,ENE,68,5.0,12.0,30,0.00,,,-99.99,384.000000,,2013-06-16 01:01:00,
2013-06-15 18:11:00,73.0,40.0,-100.00,ENE,68,5.0,12.0,30,0.00,,,-99.99,384.000000,,2013-06-16 01:11:00,
2013-06-15 18:43:00,74.0,42.0,-100.00,ENE,61,3.0,12.0,32,0.00,,,0.00,270.000000,,2013-06-16 01:43:00,
2013-06-15 18:53:00,74.0,42.0,-100.00,ENE,61,3.0,12.0,32,0.00,,,0.00,270.000000,,2013-06-16 01:53:00,
2013-06-15 19:01:00,74.0,42.0,-100.00,ENE,61,3.0,12.0,32,0.00,,,0.00,270.000000,,2013-06-16 02:01:00,
2013-06-15 19:12:00,74.0,42.0,-100.00,ENE,61,3.0,12.0,32,0.00,,,0.00,270.000000,,2013-06-16 02:12:00,
2013-06-15 19:43:00,71.0,40.0,-100.00,NE,50,3.0,11.0,33,0.00,,,0.00,284.000000,,2013-06-16 02:43:00,
2013-06-15 19:53:00,71.0,40.0,-100.00,NE,50,3.0,11.0,33,0.00,,,0.00,284.000000,,2013-06-16 02:53:00,
2013-06-15 20:01:00,71.0,40.0,-100.00,NE,50,3.0,11.0,33,0.00,,,0.00,284.000000,,2013-06-16 03:01:00,
2013-06-15 20:11:00,71.0,40.0,-100.00,NE,50,3.0,11.0,33,0.00,,,0.00,284.000000,,2013-06-16 03:11:00,
2013-06-15 20:43:00,66.0,48.0,-100.00,WNW,284,1.0,6.0,52,0.00,,,0.00,47.000000,,2013-06-16 03:43:00,
2013-06-15 20:53:00,66.0,48.0,-100.00,WNW,284,1.0,6.0,52,0.00,,,0.00,47.000000,,2013-06-16 03:53:00,
2013-06-15 21:01:00,66.0,48.0,-100.00,WNW,284,1.0,6.0,52,0.00,,,0.00,47.000000,,2013-06-16 04:01:00,
2013-06-15 21:12:00,66.0,48.0,-100.00,WNW,284,1.0,6.0,52,0.00,,,0.00,47.000000,,2013-06-16 04:12:00,
2013-06-15 21:43:00,62.0,49.0,-100.00,WNW,295,3.0,9.0,62,0.00,,,0.00,5.000000,,2013-06-16 04:43:00,
2013-06-15 21:53:00,62.0,49.0,-100.00,WNW,295,3.0,9.0,62,0.00,,,0.00,5.000000,,2013-06-16 04:53:00,
2013-06-15 22:01:00,62.0,49.0,-100.00,WNW,295,3.0,9.0,62,0.00,,,0.00,5.000000,,2013-06-16 05:01:00,
2013-06-15 22:11:00,62.0,49.0,-100.00,WNW,295,3.0,9.0,62,0.00,,,0.00,5.000000,,2013-06-16 05:11:00,
2013-06-15 22:43:00,63.0,42.0,-100.00,West,274,2.0,10.0,47,0.00,,,0.00,0.000000,,2013-06-16 05:43:00,
2013-06-15 22:52:00,63.0,42.0,-100.00,West,274,2.0,10.0,47,0.00,,,0.00,0.000000,,2013-06-16 05:52:00,
2013-06-15 23:01:00,63.0,42.0,-100.00,West,274,2.0,10.0,47,0.00,,,0.00,0.000000,,2013-06-16 06:01:00,
2013-06-15 23:11:00,63.0,42.0,-100.00,West,274,2.0,10.0,47,0.00,,,0.00,0.000000,,2013-06-16 06:11:00,
2013-06-15 23:43:00,60.0,40.0,-100.00,NW,317,2.0,5.0,48,0.00,,,0.00,0.000000,,2013-06-16 06:43:00,
2013-06-15 23:52:00,60.0,40.0,-100.00,NW,317,2.0,5.0,48,0.00,,,0.00,0.000000,,2013-06-16 06:52:00,